DAL1221 KSFO-KMRY

Flight info

Callsign DAL1221
Flight time 0h 27m
Altitude 11000
Route WESLA5 PORTE
Aircraft A20N/M-SDE2E3FGHIRWXY/LB1

Departure

Time 2026-04-25 07:04
Airport San Francisco International Airport (KSFO)

Arrival

Time 2026-04-25 07:31
Airport Monterey Regional Airport (KMRY)
Time Latitude Longitude Altitude Speed Heading
2026-04-25 06:34 37.62103 -122.38668 15 ft 0 kts 178°
2026-04-25 06:47 37.62112 -122.38665 17 ft 2 kts 273°
2026-04-25 06:47 37.62107 -122.38654 16 ft 0 kts 17°
2026-04-25 06:51 37.62004 -122.38596 15 ft 0 kts 34°
2026-04-25 06:58 37.62027 -122.38575 16 ft 11 kts 35°
2026-04-25 06:58 37.62082 -122.38508 18 ft 10 kts 76°
2026-04-25 06:58 37.62083 -122.38499 18 ft 0 kts 84°
2026-04-25 06:58 37.62067 -122.38441 20 ft 14 kts 116°
2026-04-25 06:59 37.62008 -122.38303 24 ft 22 kts 118°
2026-04-25 06:59 37.61923 -122.38101 22 ft 29 kts 118°
2026-04-25 06:59 37.61829 -122.37868 18 ft 32 kts 112°
2026-04-25 06:59 37.61747 -122.37601 19 ft 33 kts 111°
2026-04-25 07:00 37.61647 -122.37337 22 ft 33 kts 121°
2026-04-25 07:00 37.61539 -122.37076 21 ft 34 kts 116°
2026-04-25 07:00 37.61398 -122.36829 18 ft 36 kts 130°
2026-04-25 07:00 37.61269 -122.36552 15 ft 38 kts 117°
2026-04-25 07:01 37.61150 -122.36256 16 ft 38 kts 117°
2026-04-25 07:01 37.61051 -122.35967 18 ft 30 kts 78°
2026-04-25 07:01 37.61070 -122.35928 17 ft 3 kts 35°
2026-04-25 07:01 37.61100 -122.35902 17 ft 7 kts 31°
2026-04-25 07:02 37.61150 -122.35866 18 ft 9 kts 28°
2026-04-25 07:02 37.61196 -122.35897 18 ft 9 kts 275°
2026-04-25 07:02 37.61218 -122.35954 17 ft 10 kts 299°
2026-04-25 07:02 37.61220 -122.35958 16 ft 0 kts 299°
2026-04-25 07:03 37.61220 -122.35959 16 ft 0 kts 299°
2026-04-25 07:03 37.61287 -122.36115 14 ft 54 kts 297°
2026-04-25 07:04 37.61564 -122.36778 20 ft 113 kts 298°
2026-04-25 07:04 37.62007 -122.37835 95 ft 150 kts 297°
2026-04-25 07:04 37.62506 -122.38938 678 ft 145 kts 298°
2026-04-25 07:04 37.63008 -122.40087 1033 ft 156 kts 297°
2026-04-25 07:05 37.63554 -122.41371 1376 ft 175 kts 297°
2026-04-25 07:05 37.64159 -122.42791 1894 ft 196 kts 297°
2026-04-25 07:05 37.64845 -122.44381 2478 ft 217 kts 297°
2026-04-25 07:05 37.65581 -122.46078 3395 ft 218 kts 299°
2026-04-25 07:06 37.66315 -122.47770 4398 ft 222 kts 300°
2026-04-25 07:06 37.66959 -122.49575 5257 ft 230 kts 283°
2026-04-25 07:06 37.66916 -122.51621 6049 ft 241 kts 252°
2026-04-25 07:06 37.66026 -122.53417 6861 ft 245 kts 220°
2026-04-25 07:07 37.64538 -122.54384 7813 ft 242 kts 189°
2026-04-25 07:07 37.62865 -122.54284 8632 ft 244 kts 161°
2026-04-25 07:07 37.61278 -122.53501 9541 ft 245 kts 154°
2026-04-25 07:07 37.59693 -122.52592 10210 ft 259 kts 155°
2026-04-25 07:08 37.57961 -122.51645 10565 ft 283 kts 157°
2026-04-25 07:08 37.56052 -122.50689 10893 ft 308 kts 159°
2026-04-25 07:08 37.53955 -122.49695 11009 ft 335 kts 159°
2026-04-25 07:08 37.51732 -122.48670 11026 ft 342 kts 160°
2026-04-25 07:09 37.49501 -122.47651 11029 ft 341 kts 160°
2026-04-25 07:09 37.47346 -122.46513 11020 ft 341 kts 148°
2026-04-25 07:09 37.45458 -122.44696 11022 ft 342 kts 138°
2026-04-25 07:09 37.43716 -122.42662 11026 ft 342 kts 136°
2026-04-25 07:10 37.41966 -122.40636 11026 ft 343 kts 138°
2026-04-25 07:10 37.40169 -122.38666 11020 ft 343 kts 140°
2026-04-25 07:10 37.38332 -122.36742 11021 ft 343 kts 141°
2026-04-25 07:10 37.36484 -122.34855 11028 ft 342 kts 141°
2026-04-25 07:11 37.34630 -122.32984 11029 ft 340 kts 141°
2026-04-25 07:11 37.32782 -122.31127 11019 ft 341 kts 141°
2026-04-25 07:11 37.30933 -122.29269 11024 ft 340 kts 141°
2026-04-25 07:11 37.29084 -122.27411 11022 ft 340 kts 141°
2026-04-25 07:12 37.27236 -122.25554 11021 ft 341 kts 141°
2026-04-25 07:12 37.23522 -122.21825 11023 ft 342 kts 141°
2026-04-25 07:12 37.21667 -122.19962 11020 ft 342 kts 141°
2026-04-25 07:13 37.19812 -122.18101 11020 ft 342 kts 141°
2026-04-25 07:13 37.17978 -122.16261 11025 ft 342 kts 141°
2026-04-25 07:13 37.16120 -122.14400 11019 ft 342 kts 141°
2026-04-25 07:13 37.14263 -122.12540 11023 ft 342 kts 141°
2026-04-25 07:14 37.12405 -122.10680 11026 ft 342 kts 141°
2026-04-25 07:14 37.10545 -122.08821 11023 ft 343 kts 141°
2026-04-25 07:14 37.08674 -122.06952 11023 ft 343 kts 141°
2026-04-25 07:14 37.06801 -122.05106 11023 ft 342 kts 142°
2026-04-25 07:15 37.05586 -122.03852 11016 ft 342 kts 139°
2026-04-25 07:15 37.03201 -122.01256 11020 ft 342 kts 139°
2026-04-25 07:15 37.01382 -121.99328 10980 ft 343 kts 140°
2026-04-25 07:15 37.00140 -121.98048 10830 ft 342 kts 141°
2026-04-25 07:16 36.98321 -121.96191 10585 ft 333 kts 141°
2026-04-25 07:16 36.96577 -121.94406 10394 ft 321 kts 141°
2026-04-25 07:16 36.94879 -121.92671 10280 ft 308 kts 141°
2026-04-25 07:16 36.93246 -121.91012 10157 ft 295 kts 141°
2026-04-25 07:17 36.91672 -121.89411 9884 ft 290 kts 141°
2026-04-25 07:17 36.90114 -121.87825 9482 ft 288 kts 141°
2026-04-25 07:17 36.88573 -121.86247 9083 ft 285 kts 141°
2026-04-25 07:17 36.87045 -121.84675 8706 ft 283 kts 141°
2026-04-25 07:18 36.85531 -121.83111 8295 ft 282 kts 141°
2026-04-25 07:18 36.84030 -121.81558 7932 ft 279 kts 141°
2026-04-25 07:18 36.82570 -121.80032 7583 ft 276 kts 141°
2026-04-25 07:18 36.81105 -121.78494 7209 ft 274 kts 140°
2026-04-25 07:19 36.79657 -121.76963 6860 ft 272 kts 140°
2026-04-25 07:19 36.78211 -121.75439 6482 ft 271 kts 141°
2026-04-25 07:19 36.76774 -121.73927 6096 ft 270 kts 141°
2026-04-25 07:19 36.75343 -121.72421 5718 ft 269 kts 141°
2026-04-25 07:20 36.73917 -121.70921 5348 ft 267 kts 141°
2026-04-25 07:20 36.72509 -121.69442 5164 ft 265 kts 141°
2026-04-25 07:20 36.71086 -121.67944 5135 ft 268 kts 141°
2026-04-25 07:20 36.69665 -121.66444 5125 ft 267 kts 139°
2026-04-25 07:21 36.68470 -121.64682 5127 ft 268 kts 126°
2026-04-25 07:21 36.67482 -121.62711 5125 ft 269 kts 112°
2026-04-25 07:21 36.67114 -121.60426 5128 ft 271 kts 97°
2026-04-25 07:21 36.66937 -121.58104 5123 ft 264 kts 96°
2026-04-25 07:22 36.66804 -121.55891 5114 ft 249 kts 88°
2026-04-25 07:22 36.67245 -121.53884 5124 ft 235 kts 68°
2026-04-25 07:22 36.67747 -121.51952 5125 ft 235 kts 88°
2026-04-25 07:22 36.67574 -121.50015 5121 ft 219 kts 103°
2026-04-25 07:23 36.67275 -121.48204 5124 ft 211 kts 103°
2026-04-25 07:23 36.66871 -121.46452 5124 ft 207 kts 120°
2026-04-25 07:23 36.65984 -121.45099 5128 ft 206 kts 141°
2026-04-25 07:23 36.64701 -121.44392 5122 ft 204 kts 176°
2026-04-25 07:24 36.63277 -121.44533 5125 ft 206 kts 187°
2026-04-25 07:24 36.61874 -121.44863 5125 ft 205 kts 202°
2026-04-25 07:24 36.60776 -121.45976 5130 ft 210 kts 237°
2026-04-25 07:24 36.60185 -121.47647 5128 ft 211 kts 247°
2026-04-25 07:25 36.59756 -121.49390 5100 ft 210 kts 251°
2026-04-25 07:25 36.59309 -121.51109 4883 ft 209 kts 249°
2026-04-25 07:25 36.58841 -121.52828 4585 ft 208 kts 250°
2026-04-25 07:25 36.58396 -121.54527 4320 ft 206 kts 251°
2026-04-25 07:26 36.57974 -121.56208 4142 ft 200 kts 252°
2026-04-25 07:26 36.57568 -121.57886 4122 ft 205 kts 252°
2026-04-25 07:26 36.57161 -121.59588 4126 ft 206 kts 253°
2026-04-25 07:26 36.56758 -121.61290 4126 ft 205 kts 253°
2026-04-25 07:27 36.56424 -121.62989 4094 ft 202 kts 264°
2026-04-25 07:27 36.56477 -121.64713 3861 ft 198 kts 277°
2026-04-25 07:27 36.56644 -121.66318 3811 ft 178 kts 276°
2026-04-25 07:27 36.56781 -121.67777 3694 ft 162 kts 276°
2026-04-25 07:28 36.56898 -121.69136 3477 ft 155 kts 275°
2026-04-25 07:28 36.57009 -121.70467 3191 ft 154 kts 276°
2026-04-25 07:28 36.57122 -121.71803 2616 ft 164 kts 276°
2026-04-25 07:28 36.57236 -121.73297 2063 ft 170 kts 274°
2026-04-25 07:29 36.57327 -121.74644 1934 ft 144 kts 277°
2026-04-25 07:29 36.57337 -121.75842 1763 ft 138 kts 269°
2026-04-25 07:29 36.57357 -121.77030 1521 ft 135 kts 273°
2026-04-25 07:29 36.57425 -121.78191 1294 ft 135 kts 274°
2026-04-25 07:30 36.57500 -121.79349 1043 ft 133 kts 276°
2026-04-25 07:30 36.57634 -121.80485 788 ft 133 kts 280°
2026-04-25 07:30 36.57835 -121.81605 589 ft 132 kts 283°
2026-04-25 07:30 36.58120 -121.82689 362 ft 130 kts 290°
2026-04-25 07:31 36.58463 -121.83721 225 ft 130 kts 291°
2026-04-25 07:31 36.58768 -121.84636 211 ft 82 kts 292°
2026-04-25 07:31 36.58884 -121.84983 211 ft 7 kts 288°
2026-04-25 07:31 36.58872 -121.85049 211 ft 11 kts 238°
2026-04-25 07:32 36.58829 -121.85051 214 ft 6 kts 134°
2026-04-25 07:32 36.58806 -121.84992 216 ft 9 kts 107°
2026-04-25 07:32 36.58784 -121.84921 212 ft 1 kts 142°
2026-04-25 07:32 36.58778 -121.84926 211 ft 1 kts 210°
2026-04-25 07:33 36.58780 -121.84943 209 ft 5 kts 271°
2026-04-25 07:33 36.58793 -121.85008 214 ft 9 kts 270°
2026-04-25 07:33 36.58783 -121.85037 212 ft 0 kts 242°
2026-04-25 07:33 36.58778 -121.85049 213 ft 0 kts 240°